Вернуться в каталог

STARLINK-2471

АктивенСвязьVLEO
NORAD 48129·PAYLOAD·🇺🇸 United States

Запущен Apr 7, 2021 с Cape Canaveral Space Force Station

Loading…

Ближайшие Пролёты (ближайшие 24 часа)

TLE

СвежийSource: CelesTrak SupGP

Эпоха: Sep 15, 2026, 02:14 UTC

1 48129C 21027AP  26258.09354167  .00030502  00000+0  98046-3 0  2581
2 48129  53.1613   4.1245 0001281  85.8284 211.0733 15.31700020    15

Отслеживайте STARLINK-2471 в реальном времени с AllMySat

Download on the App Store